Wind_Speed
14 13 13 15 11 10 11 11 12 13 12 11 12 12 12 9 8 9 10 10 13 15 20 24 28 27 24 26 24 25 23 24 26 19 16 13 12 11 11 9 9 10 9
13 15 16 16 13 11 10 10 10 11 12 13 14 14 15 14 13 12 12 13 13 11 13 17 20 25 20 20 23 24 26 27 18 22 16 14 13 13 12 12 12 13 13
15 16 18 18 17 15 15 13 12 12 13 14 16 15 15 16 16 15 16 15 15 16 16 15 14 15 16 15 16 16 20 23 15 26 20 17 16 15 14 14 15 16 15
18 17 16 17 18 18 18 19 21 23 21 18 16 15 16 18 17 15 13 15 16 17 18 17 19 19 20 22 19 18 18 21 22 15 19 21 20 19 18 17 17 18 19
18 18 17 17 17 16 20 24 25 27 27 26 25 21 18 17 15 14 16 14 13 17 20 20 21 20 21 23 23 23 22 23 24 25 25 24 26 24 24 21 23 23 22
18 18 19 19 18 19 21 20 23 23 25 26 26 25 22 19 15 12 12 14 19 17 18 21 23 22 22 22 22 22 22 23 24 27 29 29 29 30 29 30 28 27 26
22 20 20 23 20 18 19 22 24 23 23 25 27 28 27 25 21 18 15 15 15 13 16 18 23 25 23 23 24 24 23 23 25 26 27 29 31 32 33 34 33 31 29
26 25 22 23 22 21 21 22 23 27 21 22 26 28 31 30 27 25 22 18 18 16 19 19 19 26 24 25 24 25 25 24 26 27 28 29 31 32 33 33 33 32 30
32 33 27 26 25 24 23 25 27 27 21 19 24 29 28 31 32 30 27 22 17 19 21 22 15 24 25 24 23 27 27 28 27 27 26 28 30 31 30 32 31 31 32
39 40 37 34 29 27 26 27 24 26 24 20 25 27 31 31 34 34 30 26 22 19 23 20 18 15 22 26 26 26 28 27 28 29 29 29 28 28 28 30 31 32 34
45 45 48 34 35 31 29 29 27 29 27 26 27 29 31 34 36 33 31 25 23 19 18 17 17 18 11 9 18 27 32 35 35 34 36 33 30 28 30 31 31 32 33
48 51 52 49 36 36 32 28 31 35 32 34 35 34 32 35 38 34 28 25 21 21 18 19 18 14 14 10 12 14 13 13 15 18 20 22 27 33 36 38 39 40 40
51 49 56 33 24 35 34 30 30 31 33 38 40 41 34 32 38 36 30 25 22 20 20 17 17 16 16 18 18 18 19 18 18 20 22 22 22 24 28 31 30 29 30
42 27 4 11 27 31 37 28 29 30 38 38 39 37 31 32 35 36 35 27 25 21 21 21 18 19 19 20 20 20 21 21 20 21 21 21 20 18 20 22 24 28 30
49 39 44 27 31 31 30 28 32 34 35 35 38 34 32 35 36 36 35 29 26 24 22 21 22 22 23 23 23 24 25 27 26 25 25 27 26 25 24 26 31 33 32
49 43 40 40 37 38 36 32 34 37 33 35 38 36 40 38 37 36 35 30 27 27 23 24 24 25 22 25 24 29 31 25 27 27 29 33 35 33 31 32 35 33 37
47 43 40 41 40 40 40 38 39 38 37 39 39 37 41 40 37 38 37 32 29 29 28 29 29 28 29 30 28 29 29 35 33 30 32 35 37 37 40 36 45 42 43
47 46 44 43 41 42 42 40 38 41 44 40 43 37 34 35 39 40 41 34 31 30 29 31 31 31 32 32 32 31 33 34 36 35 34 35 38 40 43 44 46 48 49
42 39 40 44 48 44 43 37 41 37 37 36 34 34 37 43 42 38 37 32 29 28 30 31 33 33 33 33 31 30 30 30 32 34 36 38 42 45 48 49 51 52 48
26 34 24 36 37 29 39 38 34 31 22 27 32 35 39 41 41 36 28 26 26 30 31 29 31 31 31 31 31 31 31 32 35 37 39 41 44 46 49 51 53 52 53
30 14 17 22 25 33 35 38 42 45 35 31 31 26 26 30 18 22 26 24 27 28 30 32 31 32 33 34 33 33 33 34 35 37 40 42 44 46 48 49 50 51 51
29 27 24 15 15 15 18 16 16 15 18 14 17 20 23 22 20 23 25 26 28 29 30 32 32 30 29 29 30 32 35 39 43 44 45 46 48 48 49 49 50 51 51
16 16 18 21 19 17 23 23 23 26 21 19 19 17 19 20 20 22 27 31 32 30 30 29 28 28 30 33 36 40 44 46 45 44 42 41 41 41 42 42 43 43 45
28 26 20 22 21 18 20 18 17 20 21 21 20 20 23 24 25 27 30 29 27 26 26 28 31 33 37 40 43 45 44 41 37 34 31 32 33 34 36 37 38 39 40
16 15 17 20 16 15 17 19 18 20 22 23 24 26 27 28 28 27 24 23 25 28 29 32 34 36 39 41 39 36 33 31 30 30 32 34 37 39 40 42 43 45 45
15 15 16 18 18 19 20 21 22 24 24 23 23 23 21 20 21 23 25 28 29 31 34 36 37 36 35 32 31 30 31 33 34 36 38 39 41 43 44 46 48 49 48
Wind_Direction
325 323 327 324 328 338 351 353 354 352 342 338 338 330 313 299 291 289 285 288 283 279 263 256 253 257 257 256 241 244 248 252 221 220 232 244 257 261 262 261 265 269 268
324 338 320 319 319 331 342 346 346 352 355 346 332 328 317 303 291 287 278 274 273 276 285 264 257 262 261 254 250 249 246 239 236 210 231 243 256 266 270 270 265 261 262
330 331 334 317 323 334 340 346 352 349 348 340 342 340 325 326 316 304 278 272 267 263 263 274 276 269 261 259 261 258 242 244 235 202 223 245 257 269 281 282 277 269 262
315 329 332 325 315 325 332 337 347 347 343 336 330 330 331 329 320 322 312 280 274 270 265 262 262 262 263 260 260 259 252 256 261 229 246 246 253 262 273 283 283 276 269
303 317 325 334 326 333 344 344 335 331 335 332 324 318 316 318 322 317 316 303 298 274 268 263 263 261 259 256 254 257 257 257 256 258 259 257 259 262 269 276 283 278 268
296 301 315 329 326 319 327 332 337 332 326 325 330 324 311 305 296 310 306 307 304 283 272 261 258 257 256 258 258 257 252 250 254 256 255 255 258 261 267 273 277 280 276
287 289 297 304 317 319 321 319 322 327 327 317 323 331 321 308 305 304 306 298 309 277 277 276 257 253 254 255 258 258 259 258 256 256 258 260 262 264 267 271 277 279 275
280 282 286 286 292 298 305 308 308 322 312 324 319 320 329 321 308 304 302 303 304 284 288 292 277 249 251 253 256 259 259 261 262 260 260 261 263 264 265 269 272 273 271
273 274 273 274 276 282 290 297 303 321 298 314 321 317 317 324 316 305 297 295 300 309 279 280 297 252 248 254 258 262 264 264 264 265 266 265 267 270 272 273 274 274 274
273 267 264 260 265 271 280 287 295 304 308 300 304 307 311 313 316 307 296 294 294 299 304 288 289 291 276 249 257 260 259 257 261 262 261 261 265 272 274 276 277 277 278
271 267 259 245 255 262 270 280 291 300 297 298 297 296 299 304 304 307 297 290 289 288 291 287 287 285 284 275 263 259 262 262 258 263 265 265 266 267 271 274 276 279 282
266 262 256 237 242 260 261 274 282 289 292 298 296 287 289 294 298 303 297 295 290 289 285 287 295 287 259 259 263 268 265 261 271 269 269 275 274 273 269 272 275 278 281
267 250 245 220 249 261 268 265 272 284 292 300 297 286 271 278 288 293 293 295 290 280 281 282 285 279 270 280 288 279 274 276 278 280 281 279 281 278 278 282 289 291 295
285 290 194 214 244 260 264 277 274 284 295 297 297 283 255 268 277 284 292 290 286 278 269 275 280 283 282 286 288 293 291 285 285 286 290 286 277 279 287 284 279 280 292
270 270 286 278 292 278 276 284 284 287 288 295 291 282 252 262 268 275 281 280 279 275 276 276 278 281 282 286 290 292 292 293 294 295 302 298 289 289 286 287 284 276 284
274 281 282 282 281 281 284 281 281 280 283 287 295 286 260 258 265 272 278 277 276 277 279 281 280 281 281 287 283 291 297 276 287 289 291 293 291 294 289 284 288 281 281
276 279 281 282 279 279 279 276 275 276 284 283 280 289 263 256 265 269 273 275 271 273 279 280 279 282 284 284 284 287 290 289 296 294 292 289 288 290 287 287 286 285 285
278 283 284 281 279 277 278 275 276 277 278 283 278 285 257 251 259 267 272 274 270 270 279 283 283 286 288 289 292 293 294 295 294 293 290 290 287 286 284 285 283 282 282
276 282 287 291 278 268 270 275 281 280 277 277 278 271 272 261 258 268 276 279 274 283 285 285 286 288 292 296 296 294 293 293 292 290 288 285 281 280 278 278 277 276 269
270 268 306 267 266 257 269 272 261 280 274 282 269 265 265 267 271 279 277 281 286 286 289 290 294 298 298 297 294 294 290 287 283 281 283 285 284 283 282 283 283 284 284
270 297 280 305 265 256 250 256 259 267 257 252 242 261 272 279 261 280 282 283 284 288 286 289 290 289 289 289 292 292 293 294 295 296 295 293 292 291 289 288 288 289 287
261 254 267 268 292 292 280 282 268 259 272 262 271 261 274 279 280 283 288 288 284 284 285 287 286 284 283 288 290 294 297 297 296 295 292 291 290 290 289 290 290 290 289
271 265 292 295 278 292 302 296 303 304 307 299 290 275 275 285 284 284 284 285 287 286 285 285 286 293 297 296 297 297 298 299 298 298 297 297 297 295 295 296 295 294 293
324 321 314 305 302 306 307 306 302 300 296 288 280 280 281 280 280 281 277 279 281 282 287 294 297 298 299 301 302 303 302 300 300 301 302 301 302 303 303 302 301 300 298
298 292 286 288 280 288 293 291 286 282 285 283 279 274 272 274 278 277 278 279 282 288 291 293 297 300 300 301 300 299 298 297 299 301 302 303 303 303 303 302 300 297 297
301 298 288 285 287 287 283 279 279 276 272 270 269 270 274 275 278 281 284 287 290 293 297 299 300 300 299 297 297 296 297 302 305 304 303 302 302 302 301 299 298 298 298
Height
5866 5863 5861 5859 5856 5854 5852 5850 5848 5845 5843 5842 5840 5839 5838 5836 5836 5835 5834 5833 5834 5834 5835 5836 5838 5838 5839 5840 5841 5843 5845 5845 5844 5848 5851 5853 5854 5855 5855 5854 5854 5855 5854
5864 5861 5859 5858 5856 5852 5850 5849 5846 5843 5841 5840 5839 5837 5835 5833 5832 5831 5830 5830 5830 5830 5830 5831 5831 5832 5832 5834 5835 5837 5839 5839 5833 5839 5845 5848 5850 5852 5852 5852 5851 5852 5851
5862 5860 5858 5856 5854 5852 5850 5847 5845 5843 5839 5837 5836 5834 5833 5831 5830 5827 5826 5826 5827 5827 5828 5828 5828 5828 5829 5829 5830 5831 5833 5836 5832 5834 5841 5844 5846 5848 5848 5847 5848 5848 5847
5860 5859 5857 5855 5853 5851 5849 5848 5846 5843 5841 5838 5835 5832 5830 5829 5827 5825 5823 5822 5823 5823 5823 5823 5824 5824 5825 5825 5826 5827 5828 5831 5832 5833 5836 5838 5841 5842 5843 5842 5843 5842 5842
5857 5857 5856 5853 5852 5851 5850 5847 5844 5842 5841 5839 5836 5832 5829 5827 5824 5821 5820 5820 5818 5817 5818 5818 5818 5819 5819 5820 5821 5821 5824 5826 5827 5828 5831 5832 5834 5836 5836 5837 5837 5836 5836
5852 5851 5850 5849 5848 5845 5843 5841 5840 5838 5837 5837 5833 5831 5828 5825 5821 5818 5816 5814 5813 5812 5811 5812 5813 5814 5815 5814 5816 5816 5818 5818 5820 5822 5823 5825 5827 5828 5829 5831 5831 5829 5830
5847 5845 5844 5842 5840 5839 5837 5836 5835 5834 5832 5831 5828 5825 5824 5822 5819 5815 5812 5810 5808 5807 5807 5805 5807 5806 5808 5808 5810 5811 5811 5812 5814 5815 5817 5819 5820 5821 5822 5823 5823 5823 5823
5840 5839 5838 5836 5834 5833 5831 5830 5829 5827 5825 5825 5823 5821 5819 5817 5817 5814 5810 5806 5803 5802 5801 5800 5798 5799 5800 5802 5804 5805 5805 5807 5809 5810 5811 5812 5813 5813 5813 5813 5813 5814 5814
5832 5831 5830 5828 5826 5824 5823 5823 5821 5820 5818 5818 5817 5816 5814 5813 5812 5810 5807 5804 5800 5798 5796 5794 5792 5791 5793 5795 5798 5798 5801 5802 5803 5803 5804 5805 5805 5806 5807 5805 5806 5806 5805
5823 5819 5817 5815 5813 5813 5813 5813 5814 5813 5811 5811 5810 5810 5808 5807 5808 5805 5802 5799 5795 5792 5791 5790 5788 5788 5787 5788 5791 5791 5791 5793 5793 5794 5795 5795 5796 5796 5797 5797 5798 5798 5798
5808 5806 5796 5795 5802 5801 5802 5803 5805 5805 5805 5804 5803 5802 5801 5802 5804 5802 5798 5793 5789 5787 5786 5785 5785 5785 5782 5781 5782 5783 5783 5783 5783 5785 5787 5787 5787 5788 5787 5788 5788 5788 5787
5790 5791 5786 5766 5786 5792 5791 5793 5795 5796 5797 5798 5796 5795 5796 5794 5795 5794 5792 5788 5784 5783 5783 5781 5780 5780 5779 5778 5778 5776 5774 5774 5775 5776 5777 5777 5777 5778 5779 5778 5778 5778 5778
5772 5731 5749 5740 5768 5784 5786 5784 5784 5786 5787 5786 5786 5783 5786 5787 5788 5786 5785 5782 5780 5778 5777 5776 5775 5775 5775 5774 5774 5773 5772 5772 5772 5771 5770 5770 5770 5771 5771 5770 5768 5768 5768
5764 5729 5708 5725 5766 5774 5778 5773 5775 5776 5776 5774 5775 5772 5774 5778 5781 5779 5778 5775 5775 5774 5771 5770 5768 5769 5769 5768 5767 5767 5767 5766 5766 5765 5765 5763 5762 5763 5762 5762 5763 5761 5759
5752 5753 5739 5751 5762 5764 5765 5764 5765 5767 5766 5766 5764 5764 5765 5769 5772 5773 5772 5769 5768 5767 5766 5764 5763 5762 5761 5761 5760 5759 5759 5759 5760 5758 5758 5756 5756 5756 5756 5754 5752 5751 5752
5741 5742 5746 5749 5752 5751 5751 5755 5756 5757 5757 5757 5757 5756 5756 5759 5762 5764 5765 5762 5759 5758 5757 5757 5757 5756 5754 5755 5753 5752 5753 5751 5751 5750 5749 5749 5748 5746 5745 5743 5742 5740 5739
5736 5736 5737 5738 5740 5741 5742 5744 5746 5747 5747 5749 5748 5747 5748 5751 5753 5753 5754 5752 5750 5750 5749 5750 5749 5748 5747 5746 5745 5744 5745 5743 5742 5741 5740 5740 5737 5735 5732 5729 5726 5726 5724
5728 5728 5729 5730 5732 5732 5731 5734 5736 5736 5735 5738 5737 5738 5740 5742 5743 5744 5744 5743 5742 5741 5742 5743 5740 5738 5737 5737 5736 5735 5734 5733 5732 5730 5729 5727 5724 5722 5720 5717 5714 5711 5707
5720 5720 5718 5716 5720 5721 5722 5725 5723 5723 5724 5726 5727 5729 5730 5732 5733 5736 5736 5735 5734 5735 5735 5732 5729 5728 5728 5727 5726 5724 5722 5719 5718 5717 5714 5711 5708 5706 5703 5700 5698 5695 5693
5710 5712 5712 5713 5705 5704 5709 5713 5714 5716 5717 5718 5720 5722 5722 5723 5726 5728 5727 5727 5725 5724 5724 5722 5720 5719 5718 5716 5714 5711 5708 5707 5705 5704 5701 5698 5695 5692 5688 5685 5681 5678 5675
5706 5702 5708 5707 5701 5703 5702 5704 5704 5707 5711 5712 5714 5716 5713 5714 5718 5717 5716 5717 5715 5716 5713 5711 5711 5708 5706 5704 5701 5699 5696 5694 5692 5689 5687 5683 5679 5677 5672 5669 5667 5663 5660
5699 5700 5701 5699 5698 5700 5700 5700 5700 5703 5704 5705 5704 5704 5704 5704 5707 5707 5706 5706 5706 5706 5703 5702 5700 5698 5696 5694 5691 5689 5686 5683 5679 5675 5671 5667 5664 5660 5656 5653 5649 5646 5643
5693 5692 5693 5693 5694 5693 5693 5694 5692 5695 5697 5697 5698 5699 5698 5700 5698 5699 5698 5696 5695 5694 5692 5689 5688 5685 5684 5682 5679 5676 5672 5668 5664 5661 5657 5652 5648 5645 5642 5639 5635 5632 5629
5686 5686 5690 5691 5690 5686 5688 5689 5689 5690 5691 5692 5692 5691 5691 5691 5690 5690 5687 5688 5686 5684 5682 5680 5678 5674 5671 5668 5664 5660 5655 5653 5650 5647 5643 5640 5637 5634 5630 5627 5623 5619 5616
5680 5681 5682 5683 5682 5681 5681 5682 5682 5682 5682 5683 5683 5683 5682 5681 5680 5680 5678 5677 5676 5674 5673 5672 5668 5665 5659 5657 5653 5649 5647 5644 5640 5636 5633 5630 5626 5623 5619 5614 5611 5608 5603
5673 5673 5675 5676 5674 5673 5674 5673 5673 5674 5675 5674 5673 5674 5674 5673 5672 5672 5671 5669 5668 5665 5662 5659 5655 5651 5649 5645 5643 5640 5637 5633 5630 5627 5623 5619 5615 5611 5606 5602 5597 5592 5587